GFSSW_500_temp_120.txt.gz
Temp
-2 -2 -2 -2 -2 -2 -2 -2 -3 -3 -3 -3 -3 -3 -3 -3 -3 -3 -4 -4 -4 -4 -4 -4 -5 -5 -5 -5 -5 -5 -4 -5 -5 -6 -7 -7 -7 -6 -7 -7 -6 -6 -7 -7 -6
-2 -2 -2 -2 -2 -2 -2 -3 -3 -3 -3 -3 -3 -3 -3 -3 -3 -3 -3 -4 -4 -4 -4 -4 -5 -5 -5 -5 -5 -5 -5 -5 -5 -4 -5 -6 -6 -7 -7 -7 -7 -7 -7 -7 -8
-2 -2 -2 -2 -2 -2 -2 -3 -3 -3 -3 -3 -3 -3 -3 -3 -3 -3 -3 -4 -4 -4 -4 -4 -4 -5 -5 -5 -5 -5 -5 -5 -5 -5 -4 -5 -5 -5 -6 -6 -7 -7 -7 -8 -8
-2 -2 -2 -2 -2 -2 -3 -3 -3 -3 -3 -3 -3 -3 -3 -3 -3 -4 -4 -4 -4 -4 -4 -5 -5 -5 -5 -5 -5 -5 -5 -5 -5 -5 -5 -5 -5 -5 -5 -5 -6 -7 -7 -8 -8
-2 -2 -2 -2 -2 -3 -3 -3 -3 -3 -3 -3 -3 -3 -3 -3 -4 -4 -4 -4 -4 -4 -4 -5 -5 -5 -5 -5 -5 -5 -5 -5 -5 -5 -5 -5 -5 -5 -5 -5 -6 -6 -8 -8 -8
-2 -2 -2 -2 -2 -3 -3 -3 -3 -3 -3 -3 -3 -3 -3 -4 -4 -4 -4 -4 -4 -4 -5 -5 -5 -5 -5 -5 -5 -5 -5 -5 -5 -5 -5 -5 -5 -5 -5 -5 -6 -7 -8 -8 -8
-2 -2 -2 -2 -2 -3 -3 -3 -4 -4 -4 -4 -4 -4 -4 -4 -4 -4 -4 -4 -4 -5 -5 -5 -5 -5 -5 -5 -5 -5 -6 -6 -5 -5 -5 -5 -5 -5 -5 -5 -6 -7 -7 -8 -8
-2 -2 -2 -2 -3 -3 -3 -4 -4 -4 -4 -4 -4 -4 -4 -4 -4 -4 -4 -4 -5 -5 -5 -5 -5 -5 -5 -5 -5 -6 -6 -6 -5 -5 -5 -5 -6 -5 -6 -6 -6 -7 -8 -8 -8
-2 -2 -2 -2 -3 -3 -3 -4 -4 -4 -4 -4 -4 -4 -4 -4 -4 -4 -4 -4 -5 -5 -5 -5 -5 -5 -5 -5 -6 -6 -6 -6 -5 -5 -5 -6 -6 -6 -6 -6 -6 -7 -8 -8 -8
-3 -2 -2 -3 -3 -3 -3 -4 -4 -4 -4 -4 -4 -4 -4 -4 -4 -4 -4 -4 -5 -5 -5 -6 -6 -6 -6 -6 -6 -6 -6 -6 -6 -6 -6 -6 -6 -6 -6 -6 -7 -7 -7 -7 -8
-3 -3 -3 -3 -3 -3 -3 -4 -4 -4 -4 -4 -4 -4 -4 -4 -4 -4 -4 -4 -5 -5 -6 -6 -6 -6 -6 -6 -6 -6 -6 -6 -6 -6 -6 -6 -6 -6 -6 -6 -6 -7 -7 -7 -7
-3 -3 -3 -3 -3 -3 -4 -4 -4 -4 -4 -4 -4 -4 -4 -4 -4 -4 -4 -4 -5 -6 -6 -6 -6 -6 -6 -6 -6 -6 -6 -6 -6 -6 -6 -6 -7 -7 -7 -7 -6 -7 -7 -7 -7
-3 -3 -3 -3 -3 -4 -4 -4 -4 -4 -5 -5 -5 -4 -4 -4 -4 -4 -4 -5 -5 -6 -6 -6 -6 -6 -6 -6 -6 -6 -6 -6 -7 -7 -7 -7 -7 -7 -7 -7 -7 -7 -7 -6 -7
-4 -3 -3 -3 -4 -4 -4 -4 -5 -5 -4 -5 -5 -5 -5 -4 -4 -5 -5 -5 -5 -6 -6 -6 -6 -6 -6 -6 -6 -7 -6 -6 -7 -7 -9 -7 -8 -7 -7 -7 -7 -7 -7 -7 -7
-4 -4 -4 -4 -4 -4 -5 -5 -5 -5 -5 -5 -5 -5 -5 -5 -5 -5 -5 -6 -6 -6 -6 -6 -6 -6 -6 -6 -6 -6 -7 -7 -7 -7 -7 -9 -7 -9 -8 -7 -7 -7 -7 -7 -8
-5 -4 -4 -4 -4 -5 -5 -5 -5 -6 -6 -5 -5 -6 -6 -6 -6 -6 -6 -6 -6 -7 -6 -6 -7 -7 -6 -6 -7 -7 -7 -7 -7 -7 -8 -9 -7 -9 -9 -8 -7 -7 -8 -8 -8
-5 -5 -5 -5 -5 -5 -5 -6 -6 -6 -6 -6 -6 -6 -6 -6 -6 -6 -7 -7 -7 -7 -7 -7 -7 -7 -7 -7 -7 -8 -8 -9 -9 -9 -9 -8 -8 -8 -8 -8 -8 -8 -8 -8 -8
-6 -5 -5 -5 -5 -5 -6 -6 -6 -6 -6 -6 -6 -7 -7 -7 -7 -7 -7 -7 -7 -7 -8 -8 -7 -7 -7 -7 -7 -7 -8 -8 -8 -10 -10 -9 -7 -9 -8 -8 -8 -9 -9 -9 -9
-6 -6 -6 -6 -6 -6 -6 -6 -6 -6 -6 -7 -7 -7 -7 -7 -7 -7 -7 -7 -7 -7 -8 -8 -8 -8 -8 -8 -8 -8 -8 -8 -8 -8 -7 -9 -9 -8 -8 -8 -9 -9 -9 -10 -10
-6 -6 -6 -6 -7 -7 -7 -6 -6 -6 -7 -7 -7 -7 -7 -7 -7 -7 -7 -7 -7 -7 -7 -7 -8 -7 -7 -8 -8 -8 -8 -8 -9 -8 -9 -10 -9 -10 -8 -9 -9 -10 -10 -10 -10
-7 -7 -7 -7 -7 -7 -7 -7 -6 -7 -7 -7 -7 -7 -7 -7 -7 -7 -7 -7 -7 -7 -7 -7 -7 -8 -7 -7 -7 -7 -7 -7 -8 -8 -8 -9 -11 -9 -9 -9 -10 -10 -10 -10 -10
-7 -7 -7 -7 -7 -7 -7 -7 -7 -7 -7 -7 -7 -7 -7 -7 -7 -7 -7 -7 -7 -7 -7 -7 -7 -7 -8 -7 -7 -7 -8 -8 -8 -9 -8 -8 -7 -8 -9 -9 -9 -9 -9 -9 -9
-8 -8 -8 -7 -7 -7 -7 -7 -7 -7 -7 -7 -7 -7 -7 -8 -8 -8 -8 -8 -8 -8 -8 -7 -7 -7 -8 -7 -6 -7 -7 -8 -8 -8 -8 -8 -8 -10 -9 -8 -8 -9 -9 -9 -10
-8 -8 -8 -8 -8 -8 -8 -8 -7 -7 -7 -7 -8 -8 -8 -8 -8 -8 -8 -8 -8 -8 -8 -8 -8 -8 -8 -9 -8 -8 -8 -8 -8 -8 -8 -8 -8 -9 -9 -9 -9 -9 -9 -10 -10
-9 -8 -9 -8 -9 -8 -8 -8 -8 -8 -8 -8 -8 -8 -8 -8 -8 -8 -8 -8 -8 -8 -8 -8 -8 -8 -8 -9 -8 -8 -8 -9 -9 -9 -9 -9 -9 -9 -9 -9 -10 -10 -10 -10 -11
-9 -9 -9 -9 -9 -9 -9 -9 -9 -8 -9 -8 -8 -8 -9 -9 -9 -9 -9 -9 -9 -8 -8 -8 -9 -8 -8 -9 -9 -9 -9 -9 -9 -10 -9 -9 -10 -9 -10 -10 -10 -10 -10 -11 -11
-10 -10 -10 -9 -9 -9 -9 -9 -9 -9 -9 -9 -9 -9 -9 -9 -9 -9 -9 -9 -9 -9 -9 -9 -9 -9 -9 -9 -9 -9 -9 -9 -10 -10 -10 -10 -11 -10 -10 -10 -11 -11 -11 -11 -12

GFSSW_500_temp_126.txt.gz
Temp
-2 -2 -1 -1 -1 -2 -2 -2 -2 -3 -3 -3 -3 -3 -3 -3 -3 -3 -4 -4 -4 -4 -4 -4 -4 -4 -4 -4 -5 -5 -6 -6 -5 -5 -5 -5 -7 -7 -7 -8 -8 -8 -8 -7 -7
-2 -2 -1 -1 -2 -2 -2 -3 -3 -3 -3 -3 -3 -3 -3 -3 -3 -3 -3 -4 -4 -4 -4 -4 -4 -4 -4 -4 -5 -5 -6 -7 -5 -5 -5 -5 -5 -8 -8 -8 -8 -6 -7 -7 -7
-2 -2 -2 -2 -2 -2 -2 -3 -3 -3 -3 -3 -3 -3 -3 -3 -3 -4 -4 -4 -4 -4 -4 -4 -4 -4 -4 -5 -5 -5 -6 -5 -6 -5 -5 -5 -5 -6 -8 -8 -8 -7 -7 -7 -7
-2 -2 -2 -2 -2 -2 -2 -3 -3 -3 -3 -3 -3 -3 -3 -3 -3 -4 -4 -4 -4 -4 -4 -4 -4 -5 -5 -5 -5 -5 -5 -5 -5 -5 -5 -5 -5 -5 -5 -6 -7 -8 -7 -7 -7
-2 -2 -2 -2 -2 -2 -3 -3 -3 -3 -3 -3 -3 -3 -3 -3 -4 -4 -4 -4 -4 -4 -4 -4 -5 -5 -5 -5 -5 -5 -5 -5 -5 -5 -5 -5 -5 -5 -5 -6 -7 -8 -7 -7 -7
-2 -2 -2 -2 -2 -2 -2 -3 -3 -3 -3 -3 -3 -3 -3 -3 -4 -4 -4 -4 -4 -4 -5 -5 -5 -5 -5 -5 -5 -5 -5 -5 -5 -5 -5 -5 -5 -5 -6 -6 -6 -7 -7 -7 -8
-2 -2 -2 -2 -2 -2 -2 -3 -3 -3 -3 -3 -3 -3 -3 -3 -4 -4 -4 -4 -4 -4 -5 -5 -5 -5 -5 -5 -5 -5 -5 -5 -5 -5 -5 -5 -5 -5 -6 -6 -6 -8 -7 -7 -8
-3 -2 -2 -2 -2 -2 -2 -3 -3 -3 -3 -3 -3 -3 -3 -3 -4 -4 -4 -4 -4 -4 -5 -5 -5 -5 -5 -5 -5 -5 -5 -7 -6 -6 -6 -6 -8 -7 -6 -7 -7 -8 -8 -8 -7
-3 -3 -2 -2 -2 -2 -2 -3 -3 -3 -3 -3 -4 -3 -4 -4 -4 -4 -4 -4 -4 -4 -5 -5 -5 -5 -6 -5 -5 -7 -6 -6 -7 -5 -6 -6 -7 -8 -6 -6 -6 -7 -9 -7 -7
-3 -3 -3 -2 -2 -2 -2 -3 -3 -3 -3 -4 -4 -4 -4 -4 -4 -4 -4 -4 -4 -4 -4 -5 -5 -5 -6 -5 -7 -6 -6 -7 -7 -7 -6 -7 -8 -5 -6 -7 -6 -6 -7 -7 -7
-3 -3 -3 -3 -3 -2 -2 -3 -3 -3 -4 -3 -4 -4 -4 -4 -4 -4 -4 -4 -4 -4 -4 -5 -5 -6 -7 -6 -6 -6 -6 -6 -7 -5 -6 -7 -6 -6 -6 -7 -5 -6 -6 -7 -7
-4 -3 -3 -3 -3 -3 -3 -3 -3 -3 -3 -3 -4 -4 -4 -4 -4 -4 -4 -4 -4 -4 -4 -6 -6 -7 -6 -6 -6 -6 -6 -7 -7 -5 -6 -6 -7 -6 -6 -7 -6 -6 -6 -6 -7
-4 -4 -3 -3 -3 -3 -3 -3 -3 -3 -3 -3 -4 -4 -4 -4 -4 -4 -4 -4 -4 -4 -5 -5 -8 -6 -6 -6 -6 -6 -6 -8 -7 -7 -7 -7 -7 -7 -7 -6 -6 -5 -6 -6 -6
-4 -4 -4 -3 -3 -3 -3 -3 -3 -3 -4 -4 -4 -3 -4 -4 -4 -4 -4 -4 -4 -4 -5 -6 -5 -6 -6 -6 -6 -8 -7 -6 -6 -6 -7 -7 -7 -7 -7 -8 -8 -6 -5 -6 -6
-4 -4 -4 -4 -4 -3 -4 -4 -4 -4 -4 -3 -4 -4 -4 -4 -4 -4 -5 -5 -5 -5 -6 -8 -6 -6 -6 -6 -6 -6 -6 -6 -6 -6 -6 -7 -7 -7 -8 -8 -9 -9 -6 -6 -7
-5 -4 -4 -4 -4 -4 -4 -4 -4 -4 -5 -4 -4 -4 -4 -5 -5 -5 -5 -5 -5 -5 -6 -6 -6 -6 -6 -6 -6 -6 -6 -6 -6 -7 -7 -7 -7 -8 -8 -8 -9 -9 -8 -7 -7
-5 -5 -5 -5 -4 -4 -4 -5 -5 -5 -6 -6 -5 -5 -5 -5 -5 -5 -5 -5 -6 -6 -7 -7 -6 -6 -6 -6 -6 -6 -6 -8 -7 -7 -8 -7 -7 -7 -7 -8 -8 -8 -8 -8 -7
-5 -5 -5 -5 -5 -5 -5 -5 -5 -6 -8 -8 -5 -5 -5 -6 -6 -6 -6 -6 -6 -6 -7 -8 -7 -8 -6 -6 -7 -8 -7 -7 -7 -7 -7 -8 -7 -8 -8 -8 -8 -8 -9 -9 -9
-6 -5 -5 -5 -6 -6 -5 -5 -6 -6 -8 -7 -6 -8 -8 -8 -8 -9 -7 -7 -9 -9 -7 -8 -8 -8 -8 -7 -6 -8 -7 -8 -7 -7 -7 -7 -7 -8 -8 -8 -8 -8 -7 -8 -7
-7 -6 -6 -6 -6 -6 -6 -6 -6 -6 -6 -5 -7 -7 -8 -8 -8 -8 -9 -8 -9 -7 -7 -7 -7 -9 -9 -6 -7 -7 -7 -7 -8 -9 -8 -7 -8 -8 -9 -9 -9 -8 -7 -8 -7
-7 -7 -6 -7 -7 -6 -6 -7 -7 -8 -7 -7 -7 -8 -9 -8 -8 -9 -9 -9 -9 -7 -6 -7 -7 -7 -9 -8 -7 -9 -7 -8 -9 -9 -9 -9 -8 -9 -9 -9 -9 -9 -9 -8 -8
-8 -8 -6 -7 -7 -7 -7 -8 -7 -6 -7 -7 -7 -7 -8 -8 -9 -9 -9 -9 -9 -7 -7 -7 -7 -7 -7 -9 -9 -8 -9 -8 -8 -8 -10 -9 -8 -10 -9 -9 -9 -9 -8 -7 -7
-8 -8 -7 -7 -7 -8 -8 -8 -6 -7 -7 -7 -7 -7 -8 -7 -8 -8 -10 -9 -8 -7 -7 -7 -7 -7 -7 -8 -10 -10 -8 -7 -7 -7 -8 -8 -8 -10 -10 -11 -10 -8 -7 -8 -8
-8 -8 -8 -8 -8 -8 -8 -7 -7 -7 -7 -7 -7 -7 -7 -7 -7 -8 -8 -7 -7 -7 -7 -8 -8 -7 -7 -9 -9 -9 -10 -9 -8 -8 -8 -9 -10 -11 -11 -10 -9 -8 -8 -8 -8
-9 -9 -8 -8 -9 -8 -8 -8 -7 -7 -8 -7 -8 -7 -8 -8 -8 -8 -8 -9 -7 -7 -8 -8 -7 -8 -8 -8 -8 -8 -8 -8 -9 -9 -9 -8 -9 -8 -9 -8 -8 -8 -8 -8 -8
-10 -9 -8 -8 -8 -8 -8 -8 -8 -8 -8 -8 -8 -8 -8 -8 -8 -9 -10 -9 -9 -8 -7 -8 -8 -8 -8 -8 -8 -8 -8 -8 -9 -9 -9 -9 -9 -11 -10 -8 -8 -8 -9 -9 -9
-9 -10 -10 -9 -9 -9 -9 -9 -9 -10 -10 -8 -8 -9 -9 -8 -8 -8 -8 -8 -9 -9 -8 -8 -8 -8 -8 -8 -9 -8 -9 -9 -9 -9 -9 -9 -11 -11 -9 -9 -9 -9 -9 -9 -9

GFSSW_500_temp_129.txt.gz
Temp
-1 -1 -1 -1 -1 -2 -2 -2 -2 -2 -3 -3 -3 -3 -3 -3 -4 -4 -4 -4 -4 -4 -4 -4 -5 -5 -5 -5 -5 -7 -7 -7 -7 -6 -6 -7 -8 -8 -8 -7 -7 -7 -6 -7 -7
-2 -1 -1 -1 -1 -2 -2 -2 -3 -3 -3 -3 -3 -3 -3 -3 -3 -4 -4 -4 -4 -4 -4 -4 -5 -5 -5 -5 -5 -7 -7 -8 -6 -5 -5 -5 -6 -8 -8 -8 -8 -7 -7 -8 -8
-2 -1 -1 -1 -1 -2 -2 -2 -3 -3 -3 -3 -3 -3 -3 -4 -4 -4 -4 -4 -4 -4 -4 -4 -5 -4 -5 -5 -6 -6 -6 -6 -6 -5 -5 -5 -6 -6 -8 -8 -8 -6 -7 -7 -8
-2 -2 -1 -1 -1 -2 -2 -2 -3 -3 -3 -3 -3 -3 -3 -4 -4 -4 -4 -4 -4 -4 -4 -5 -5 -5 -5 -4 -5 -6 -6 -5 -5 -5 -5 -5 -5 -6 -6 -7 -6 -6 -7 -7 -8
-2 -2 -2 -1 -2 -2 -2 -2 -3 -3 -3 -3 -3 -3 -3 -3 -4 -4 -4 -4 -4 -4 -5 -5 -5 -5 -5 -5 -5 -5 -5 -5 -6 -5 -5 -5 -5 -5 -6 -6 -6 -6 -7 -7 -8
-2 -2 -2 -2 -2 -2 -2 -2 -3 -3 -3 -3 -3 -3 -3 -4 -4 -4 -4 -4 -4 -4 -5 -5 -5 -5 -5 -5 -5 -5 -5 -5 -5 -6 -6 -5 -5 -5 -6 -7 -6 -6 -6 -7 -7
-2 -2 -2 -2 -2 -2 -2 -3 -3 -3 -3 -3 -3 -3 -3 -3 -4 -4 -4 -4 -4 -4 -4 -5 -5 -5 -5 -5 -5 -5 -6 -5 -5 -7 -6 -5 -5 -6 -7 -6 -7 -6 -5 -6 -8
-2 -2 -2 -2 -2 -2 -2 -2 -2 -3 -3 -3 -3 -3 -3 -3 -4 -4 -4 -4 -4 -4 -4 -5 -5 -5 -5 -6 -6 -6 -6 -5 -6 -6 -7 -6 -6 -6 -6 -7 -8 -8 -7 -5 -6
-3 -3 -2 -2 -2 -2 -2 -2 -2 -3 -3 -3 -3 -3 -3 -3 -3 -3 -4 -4 -4 -4 -4 -4 -5 -5 -6 -6 -5 -6 -6 -7 -7 -6 -6 -7 -8 -7 -7 -7 -6 -7 -7 -6 -6
-3 -3 -3 -2 -2 -2 -2 -2 -2 -3 -3 -3 -3 -3 -4 -3 -3 -3 -4 -4 -4 -4 -4 -4 -5 -6 -6 -5 -5 -7 -7 -7 -7 -5 -7 -7 -7 -6 -7 -6 -7 -7 -7 -7 -6
-3 -3 -3 -3 -2 -2 -2 -2 -2 -3 -3 -3 -3 -3 -4 -4 -4 -4 -4 -4 -4 -4 -4 -4 -5 -6 -4 -6 -6 -7 -6 -6 -7 -6 -7 -6 -8 -6 -7 -7 -7 -7 -7 -7 -6
-4 -3 -3 -3 -3 -3 -2 -2 -2 -3 -3 -3 -3 -3 -4 -4 -4 -4 -4 -4 -4 -4 -4 -4 -4 -5 -7 -7 -6 -6 -6 -7 -7 -7 -7 -6 -8 -7 -6 -6 -6 -7 -6 -6 -7
-4 -4 -3 -3 -3 -3 -3 -3 -3 -3 -3 -3 -3 -3 -3 -4 -4 -4 -4 -4 -4 -4 -4 -4 -4 -5 -6 -6 -6 -6 -7 -7 -8 -6 -7 -7 -7 -7 -7 -7 -7 -6 -6 -6 -7
-4 -4 -4 -3 -3 -3 -3 -3 -3 -3 -3 -3 -3 -3 -3 -3 -3 -4 -4 -4 -4 -4 -4 -5 -5 -6 -6 -7 -6 -6 -6 -6 -6 -6 -6 -7 -8 -7 -7 -7 -7 -5 -5 -6 -7
-4 -4 -4 -4 -4 -3 -3 -3 -3 -3 -3 -3 -3 -3 -3 -3 -4 -4 -4 -4 -4 -4 -5 -5 -6 -6 -6 -5 -6 -5 -6 -6 -6 -6 -6 -7 -7 -8 -8 -8 -7 -6 -5 -5 -6
-5 -5 -4 -4 -4 -4 -4 -4 -4 -4 -4 -3 -4 -4 -4 -4 -4 -4 -4 -5 -5 -5 -6 -6 -6 -7 -7 -6 -6 -6 -6 -7 -7 -7 -7 -7 -8 -8 -9 -8 -7 -7 -7 -7 -5
-5 -5 -5 -4 -4 -4 -4 -4 -4 -4 -4 -4 -4 -4 -5 -4 -4 -5 -5 -5 -5 -6 -6 -6 -6 -7 -6 -7 -6 -6 -6 -6 -7 -8 -8 -7 -8 -8 -8 -8 -8 -8 -8 -8 -6
-6 -5 -5 -5 -5 -5 -4 -4 -4 -5 -7 -7 -6 -4 -5 -5 -5 -5 -5 -6 -6 -6 -7 -7 -8 -8 -8 -7 -7 -7 -6 -7 -7 -8 -9 -8 -8 -8 -8 -8 -8 -8 -8 -8 -7
-6 -6 -6 -6 -5 -5 -5 -4 -5 -7 -6 -8 -8 -6 -5 -6 -6 -7 -6 -6 -6 -6 -7 -7 -8 -8 -8 -7 -6 -7 -7 -7 -6 -7 -8 -8 -9 -8 -8 -9 -9 -9 -9 -8 -7
-6 -6 -6 -6 -6 -6 -5 -5 -6 -6 -5 -7 -7 -7 -8 -8 -8 -9 -9 -8 -8 -9 -8 -8 -8 -7 -8 -8 -7 -8 -7 -7 -7 -7 -7 -8 -8 -9 -9 -8 -8 -7 -7 -8 -7
-7 -7 -7 -7 -7 -6 -5 -6 -7 -7 -6 -6 -6 -6 -7 -8 -8 -8 -8 -8 -9 -9 -7 -7 -8 -7 -8 -8 -8 -7 -7 -7 -7 -8 -8 -8 -9 -9 -9 -9 -9 -9 -9 -8 -7
-8 -8 -7 -7 -7 -6 -6 -7 -7 -7 -6 -7 -6 -8 -7 -8 -8 -8 -9 -9 -9 -9 -8 -5 -7 -7 -7 -7 -9 -9 -9 -9 -8 -8 -9 -9 -10 -9 -9 -10 -10 -10 -9 -8 -7
-9 -9 -7 -8 -7 -7 -8 -8 -8 -7 -7 -6 -6 -7 -8 -8 -8 -9 -9 -9 -9 -9 -8 -6 -7 -7 -7 -8 -9 -10 -10 -8 -8 -9 -8 -8 -8 -10 -10 -10 -9 -9 -8 -8 -7
-9 -9 -9 -9 -8 -8 -8 -8 -8 -7 -8 -7 -7 -7 -8 -8 -8 -8 -9 -8 -7 -8 -8 -7 -7 -8 -7 -8 -8 -9 -9 -11 -10 -8 -8 -8 -8 -9 -11 -10 -10 -10 -9 -8 -8
-9 -10 -8 -8 -8 -8 -8 -9 -8 -8 -7 -8 -7 -7 -8 -8 -8 -8 -8 -8 -8 -7 -7 -7 -7 -7 -7 -8 -9 -8 -8 -9 -9 -10 -9 -8 -8 -9 -10 -10 -9 -8 -8 -8 -9
-9 -9 -8 -8 -8 -8 -8 -9 -9 -8 -8 -8 -8 -8 -8 -8 -8 -8 -9 -9 -8 -7 -7 -7 -7 -7 -8 -8 -8 -8 -8 -9 -9 -9 -10 -9 -9 -9 -9 -8 -8 -8 -8 -8 -9
-10 -10 -9 -10 -9 -9 -9 -9 -9 -9 -9 -8 -8 -8 -9 -8 -7 -8 -8 -8 -7 -7 -7 -7 -7 -8 -8 -8 -8 -8 -9 -9 -9 -9 -9 -9 -9 -10 -9 -9 -9 -9 -9 -9 -9

GFSSW_500_temp_135.txt.gz
Temp
-2 -2 -2 -2 -2 -2 -3 -3 -3 -3 -3 -4 -4 -4 -4 -4 -4 -5 -5 -5 -5 -5 -5 -5 -5 -5 -6 -6 -5 -5 -5 -6 -8 -9 -8 -8 -7 -7 -7 -8 -7 -7 -7 -7 -7
-2 -2 -2 -2 -2 -2 -3 -3 -3 -3 -3 -4 -4 -4 -4 -4 -4 -4 -5 -5 -5 -5 -5 -5 -5 -5 -5 -5 -5 -4 -5 -6 -6 -8 -8 -8 -7 -7 -7 -8 -7 -7 -7 -7 -7
-2 -2 -2 -2 -2 -2 -3 -3 -3 -3 -3 -4 -4 -4 -4 -4 -4 -5 -5 -5 -5 -5 -5 -5 -5 -5 -6 -6 -5 -4 -5 -6 -7 -7 -7 -7 -6 -7 -7 -8 -8 -7 -8 -8 -7
-2 -2 -2 -2 -2 -2 -3 -3 -3 -3 -3 -4 -4 -4 -4 -4 -4 -5 -5 -5 -5 -5 -5 -5 -6 -6 -6 -6 -5 -5 -5 -6 -6 -7 -7 -6 -6 -7 -7 -7 -8 -7 -8 -8 -8
-2 -2 -2 -2 -2 -2 -3 -3 -3 -3 -4 -4 -4 -4 -4 -4 -4 -5 -5 -5 -5 -5 -5 -6 -6 -6 -6 -6 -6 -6 -6 -7 -6 -6 -6 -6 -7 -7 -7 -7 -8 -8 -7 -8 -8
-3 -2 -2 -2 -2 -2 -2 -3 -3 -3 -3 -4 -4 -4 -4 -4 -4 -4 -5 -5 -5 -5 -6 -6 -6 -6 -6 -6 -6 -6 -7 -7 -6 -6 -6 -7 -7 -6 -7 -7 -7 -7 -8 -8 -8
-3 -3 -2 -2 -2 -2 -2 -3 -3 -3 -3 -3 -3 -4 -4 -4 -4 -4 -5 -5 -5 -5 -6 -6 -6 -6 -6 -6 -6 -6 -7 -7 -6 -5 -5 -6 -6 -7 -7 -7 -7 -7 -7 -8 -8
-3 -3 -2 -2 -2 -2 -2 -3 -3 -3 -3 -3 -3 -3 -4 -4 -4 -4 -4 -4 -5 -5 -5 -6 -6 -6 -6 -6 -6 -6 -6 -7 -7 -6 -6 -7 -6 -7 -7 -8 -7 -7 -7 -7 -8
-3 -3 -3 -2 -2 -2 -2 -3 -3 -3 -3 -3 -3 -3 -4 -4 -4 -4 -4 -4 -4 -5 -5 -5 -6 -6 -6 -7 -7 -7 -7 -6 -7 -7 -7 -7 -6 -7 -7 -8 -7 -7 -7 -6 -7
-3 -3 -3 -3 -3 -2 -2 -2 -3 -3 -3 -3 -3 -4 -4 -4 -4 -4 -4 -4 -4 -4 -4 -4 -5 -5 -6 -7 -7 -7 -7 -7 -7 -8 -8 -7 -6 -6 -7 -7 -8 -8 -7 -7 -7
-4 -3 -3 -3 -3 -3 -3 -2 -3 -3 -3 -3 -3 -4 -4 -4 -4 -4 -4 -4 -4 -4 -4 -4 -4 -5 -6 -7 -7 -7 -7 -7 -8 -8 -7 -7 -6 -6 -7 -7 -7 -8 -8 -8 -8
-4 -4 -3 -3 -3 -3 -3 -2 -2 -3 -3 -3 -3 -3 -4 -4 -4 -4 -4 -4 -4 -4 -4 -4 -4 -5 -5 -6 -7 -7 -7 -7 -8 -8 -8 -8 -7 -6 -7 -6 -7 -8 -8 -8 -8
-4 -4 -4 -3 -3 -3 -3 -3 -3 -3 -3 -3 -3 -3 -3 -4 -4 -4 -4 -4 -4 -4 -4 -4 -5 -5 -5 -5 -6 -6 -7 -8 -7 -8 -8 -8 -8 -7 -7 -6 -7 -7 -8 -8 -8
-5 -4 -4 -4 -3 -3 -3 -3 -3 -3 -3 -3 -3 -4 -4 -4 -4 -4 -4 -4 -4 -4 -4 -4 -5 -5 -5 -5 -6 -6 -6 -7 -7 -7 -8 -8 -8 -8 -8 -7 -7 -7 -8 -8 -8
-5 -5 -4 -4 -4 -4 -3 -3 -3 -3 -3 -3 -3 -3 -3 -4 -4 -4 -4 -4 -4 -4 -4 -5 -5 -5 -5 -5 -6 -6 -7 -7 -7 -7 -7 -7 -8 -8 -8 -7 -7 -7 -8 -7 -7
-6 -5 -5 -4 -4 -4 -4 -4 -4 -4 -4 -4 -3 -3 -4 -4 -3 -4 -4 -4 -4 -4 -4 -5 -5 -4 -5 -5 -6 -7 -6 -6 -6 -6 -6 -7 -7 -7 -7 -7 -7 -7 -7 -7 -7
-6 -6 -5 -5 -4 -4 -4 -4 -4 -4 -4 -4 -4 -4 -4 -4 -4 -4 -4 -4 -5 -4 -5 -5 -5 -5 -6 -6 -6 -7 -7 -7 -7 -7 -7 -7 -7 -6 -7 -7 -7 -8 -8 -7 -8
-6 -6 -6 -6 -5 -5 -4 -4 -4 -5 -5 -4 -4 -4 -4 -4 -4 -4 -4 -4 -4 -4 -5 -5 -5 -5 -7 -7 -7 -7 -7 -7 -7 -8 -7 -7 -7 -7 -7 -7 -7 -8 -8 -8 -8
-7 -7 -7 -6 -6 -5 -5 -4 -5 -5 -5 -4 -4 -4 -4 -4 -4 -4 -5 -5 -5 -5 -6 -6 -5 -6 -7 -7 -7 -7 -7 -6 -7 -7 -7 -7 -7 -7 -7 -7 -7 -8 -9 -9 -9
-7 -7 -7 -6 -6 -6 -5 -5 -6 -6 -5 -5 -5 -5 -5 -4 -4 -5 -5 -5 -5 -5 -7 -7 -6 -6 -6 -7 -7 -7 -7 -7 -7 -7 -7 -7 -7 -7 -7 -7 -8 -9 -9 -9 -8
-8 -8 -7 -7 -7 -6 -5 -5 -7 -7 -6 -6 -5 -6 -6 -5 -5 -5 -5 -6 -6 -6 -6 -7 -7 -7 -7 -7 -8 -8 -7 -7 -7 -7 -7 -7 -7 -7 -7 -7 -8 -8 -8 -8 -8
-9 -9 -8 -7 -7 -6 -6 -6 -7 -8 -7 -7 -7 -7 -7 -5 -5 -5 -5 -6 -5 -6 -6 -8 -8 -8 -8 -9 -9 -8 -7 -7 -7 -7 -7 -8 -8 -8 -8 -8 -9 -8 -8 -8 -8
-10 -10 -9 -8 -7 -7 -7 -7 -8 -8 -8 -7 -8 -8 -8 -7 -5 -4 -5 -5 -7 -7 -7 -8 -8 -8 -8 -8 -8 -9 -8 -7 -7 -7 -7 -7 -8 -9 -9 -9 -9 -9 -9 -9 -10
-10 -10 -9 -8 -8 -8 -7 -8 -7 -8 -8 -7 -8 -9 -8 -8 -6 -6 -5 -6 -7 -7 -9 -9 -9 -8 -8 -9 -8 -9 -9 -9 -8 -8 -7 -7 -8 -9 -9 -9 -9 -9 -10 -10 -10
-10 -10 -10 -9 -9 -8 -8 -8 -8 -8 -8 -8 -7 -8 -9 -9 -8 -8 -8 -7 -8 -8 -9 -9 -9 -9 -8 -8 -8 -9 -9 -9 -9 -8 -8 -8 -8 -9 -9 -10 -10 -10 -10 -11 -11
-11 -10 -10 -10 -9 -9 -9 -9 -8 -9 -8 -8 -7 -8 -9 -9 -8 -8 -8 -8 -8 -9 -9 -9 -9 -9 -8 -8 -8 -9 -9 -8 -9 -8 -8 -8 -8 -8 -9 -10 -10 -11 -11 -11 -11
-11 -11 -10 -10 -10 -10 -10 -9 -9 -10 -9 -8 -8 -8 -8 -9 -9 -9 -8 -9 -9 -9 -9 -9 -9 -9 -9 -9 -9 -9 -9 -9 -9 -8 -8 -8 -9 -9 -9 -10 -10 -10 -11 -11 -11